Weather History for KBMG - December, 2005

Change the Weather History Date:

Saturday, December 31, 2005

  Actual Average Record
Temperature  
Mean Temperature 34 °F 30 °F  
Max Temperature 39 °F 38 °F 63 °F (2010)
Min Temperature 27 °F 21 °F 6 °F (1998)
Degree Days  
Heating Degree Days 32 36  
Month to date heating degree days 1017  
Since 1 July heating degree days 2073  
Cooling Degree Days 0 0  
Month to date cooling degree days 0  
Year to date cooling degree days 927  
Moisture  
Dew Point 31 °F    
Average Humidity 80    
Maximum Humidity 92    
Minimum Humidity 70    
Precipitation  
Precipitation 0.00 in 0.13 in 1.16 in (2006)
Month to date precipitation 3.54  
Year to date precipitation 47.55  
Sea Level Pressure  
Sea Level Pressure 29.80 in    
Wind  
Wind Speed 8 mph (WSW)    
Max Wind Speed 15 mph    
Max Gust Speed 23 mph    
Visibility 9 miles    
Events      
T = Trace of Precipitation, MM = Missing Value Source: NWS Daily Summary

Daily Weather History Graph

Daily Weather History Graph

Search for Another Location

Airport or City:

Trip Planner

Search our weather history database for the weather conditions in past years. The results will help you decide how hot, cold, wet, or windy it might be!

Date:

Astronomy

Dec. 31, 2005 Rise Set
Actual Time 8:05 AM EST 5:33 PM EST
Civil Twilight 7:35 AM EST 6:03 PM EST
Nautical Twilight 7:02 AM EST 6:37 PM EST
Astronomical Twilight 6:29 AM EST 7:09 PM EST
Moon 8:59 AM EST (12/31) 6:05 PM EST (12/31)
Length of Visible Light 10h 27m
Length of Day
9h 27m
New Moon, 0% of the Moon is Illuminated
Dec 31
New Moon
Jan 6
First Quarter
Jan 14
Full
Jan 22
Last Quarter
Jan 29
New

Hourly Weather History & Observations

Time (EST) Temp. Windchill Dew Point Humidity Pressure Visibility Wind Dir Wind Speed Gust Speed Precip Events Conditions
12:10 AM 39.2 °F 33.0 °F 35.6 °F 87% 29.65 in 9.0 mi West 9.2 mph - N/A   Mostly Cloudy
12:53 AM 39.0 °F 35.7 °F 36.0 °F 89% 29.67 in 7.0 mi SW 4.6 mph - N/A   Mostly Cloudy
1:53 AM 39.0 °F 34.8 °F 36.0 °F 89% 29.68 in 6.0 mi SW 5.8 mph - N/A   Overcast
2:53 AM 39.9 °F 35.8 °F 36.0 °F 86% 29.67 in 6.0 mi SSW 5.8 mph - N/A   Overcast
3:53 AM 39.9 °F 34.5 °F 35.1 °F 83% 29.69 in 7.0 mi SW 8.1 mph - N/A   Overcast
4:53 AM 39.9 °F 32.9 °F 35.1 °F 83% 29.68 in 8.0 mi SW 11.5 mph - N/A   Overcast
5:30 AM 39.2 °F 31.6 °F 35.6 °F 87% 29.68 in 8.0 mi WSW 12.7 mph - N/A   Overcast
5:40 AM 39.2 °F 30.8 °F 35.6 °F 87% 29.68 in 8.0 mi WSW 15.0 mph 19.6 mph N/A   Overcast
5:53 AM 39.9 °F 32.9 °F 34.0 °F 79% 29.70 in 9.0 mi WSW 11.5 mph - N/A   Overcast
6:53 AM 39.0 °F 31.4 °F 34.0 °F 82% 29.73 in 10.0 mi WSW 12.7 mph - N/A   Overcast
7:53 AM 39.0 °F 32.3 °F 32.0 °F 76% 29.74 in 10.0 mi WSW 10.4 mph - N/A   Overcast
8:53 AM 37.9 °F 30.5 °F 30.9 °F 76% 29.76 in 10.0 mi WSW 11.5 mph - N/A   Mostly Cloudy
9:53 AM 39.0 °F 31.4 °F 30.9 °F 73% 29.79 in 10.0 mi WSW 12.7 mph - N/A   Overcast
10:23 AM 39.2 °F 32.5 °F 32.0 °F 75% 29.79 in 10.0 mi WSW 10.4 mph - N/A   Overcast
10:53 AM 39.0 °F 30.6 °F 30.0 °F 70% 29.81 in 10.0 mi WSW 15.0 mph 20.7 mph N/A   Overcast
11:53 AM 37.9 °F 29.2 °F 30.0 °F 73% 29.82 in 10.0 mi West 15.0 mph 23.0 mph N/A   Overcast
12:53 PM 37.9 °F 30.0 °F 30.0 °F 73% 29.82 in 10.0 mi West 12.7 mph - N/A   Overcast
1:53 PM 37.9 °F 29.2 °F 30.0 °F 73% 29.84 in 10.0 mi WSW 15.0 mph - N/A   Overcast
2:53 PM 37.9 °F 32.7 °F 30.0 °F 73% 29.85 in 10.0 mi West 6.9 mph - N/A   Overcast
3:53 PM 37.9 °F 32.1 °F 30.0 °F 73% 29.88 in 10.0 mi West 8.1 mph - N/A   Overcast
4:53 PM 37.0 °F 33.3 °F 30.0 °F 76% 29.88 in 10.0 mi West 4.6 mph - N/A   Overcast
5:53 PM 37.0 °F 32.4 °F 30.0 °F 76% 29.88 in 10.0 mi WSW 5.8 mph - N/A   Overcast
6:53 PM 37.0 °F 34.5 °F 30.0 °F 76% 29.90 in 10.0 mi WSW 3.5 mph - N/A   Overcast
7:53 PM 36.0 °F 33.3 °F 28.0 °F 73% 29.92 in 10.0 mi West 3.5 mph - N/A   Mostly Cloudy
8:08 PM 35.6 °F - 28.4 °F 75% 29.90 in 10.0 mi Calm Calm - N/A   Partly Cloudy
8:53 PM 30.9 °F - 28.0 °F 89% 29.93 in 9.0 mi Calm Calm - N/A   Clear
9:53 PM 30.0 °F - 27.0 °F 88% 29.93 in 7.0 mi Calm Calm - N/A   Clear
10:53 PM 28.0 °F - 25.0 °F 88% 29.95 in 6.0 mi Calm Calm - N/A   Clear
11:53 PM 27.0 °F 21.6 °F 25.0 °F 92% 29.93 in 5.0 mi SE 4.6 mph - N/A   Clear